Home > Weather > Royan > Past weeks

Flag for France Past Weather in Royan, Poitou-Charentes, France — Yesterday and Last 2 Weeks

Now
66 °F

Drizzle. Mostly cloudy.


Feels Like: 66 °F
Forecast: 63 / 76 °F
Wind: 6 mph from West

Location: Cognac Airport

Current Time: Jul 28, 2016 at 4:55:58 AM

Latest Report: Jul 28, 2016 at 4:30 AM


Visibility: 4 mi

Pressure: 30.15 "Hg

Humidity: 88%

Dew Point: 63 °F

Location of RoyanLocation

Past Weather in Royan — Graph

°F

Royan Temperature Yesterday

Maximum temperature yesterday: 81 °F (at 3:00 PM)
Minimum temperature yesterday: 63 °F (at 5:00 AM)
Average temperature yesterday: 71 °F

High & Low Weather Summary for the Past Weeks

 TemperatureHumidityPressure
High100 °F (Jul 19, 4:30 PM)100% (Jul 20, 8:30 AM)30.39 "Hg (Jul 20, 8:30 AM)
Low50 °F (Jul 15, 5:30 AM)20% (Jul 18, 7:30 PM)29.92 "Hg (Jul 19, 3:00 PM)
Average72 °F60%30.14 "Hg
* Reported Jul 13 3:00 AM — Jul 28 3:30 AM, Royan, Weather by CustomWeather, © 2016

Note: Actual official high and low records may vary slightly from our data, if they occured in-between our weather recording intervals... More about our weather records

Advertising

Royan Weather History for the Previous 24 Hours

Scroll right to see more
 ConditionsComfort  
Time TempWeatherWind HumidityBarometerVisibility
3:30 AM
Thu, Jul 28
68 °FOvercast.7 mph83%30.15 "HgN/A
3:00 AM66 °FOvercast.5 mph88%30.15 "HgN/A
2:30 AM66 °FOvercast.5 mph83%30.15 "HgN/A
2:00 AM66 °FOvercast.3 mph83%30.15 "HgN/A
1:30 AM66 °FOvercast.6 mph83%30.15 "HgN/A
1:00 AM64 °FPassing clouds.5 mph88%30.18 "HgN/A
12:30 AM64 °FClear.3 mph88%30.18 "Hg10 mi
12:00 AM66 °FClear.3 mph83%30.15 "Hg10 mi
11:30 PM
Wed, Jul 27
66 °FClear.5 mph83%30.15 "Hg10 mi
11:00 PM68 °FClear.6 mph78%30.15 "Hg10 mi
10:30 PM68 °FSunny.8 mph73%30.15 "Hg10 mi
10:00 PM70 °FSunny.10 mph69%30.15 "Hg10 mi
9:30 PM72 °FSunny.10 mph65%30.15 "Hg10 mi
9:00 PM72 °FSunny.10 mph61%30.15 "Hg10 mi
8:30 PM73 °FSunny.12 mph57%30.15 "Hg10 mi
8:00 PM75 °FSunny.13 mph54%30.15 "Hg10 mi
7:30 PM77 °FSunny.14 mph51%30.15 "Hg10 mi
7:00 PM77 °FPassing clouds.12 mph51%30.12 "HgN/A
6:30 PM79 °FPassing clouds.12 mph45%30.12 "HgN/A
6:00 PM79 °FPassing clouds.13 mph45%30.15 "HgN/A
5:30 PM79 °FSunny.15 mph48%30.15 "Hg10 mi
5:00 PM79 °FPassing clouds.12 mph48%30.15 "HgN/A
4:30 PM79 °FPassing clouds.14 mph48%30.15 "HgN/A
4:00 PM81 °FPassing clouds.13 mph45%30.15 "HgN/A
3:30 PM81 °FPassing clouds.10 mph45%30.15 "HgN/A
3:00 PM81 °FPassing clouds.9 mph42%30.15 "HgN/A
2:30 PM79 °FPassing clouds.7 mph45%30.15 "HgN/A
2:00 PM79 °FPassing clouds.7 mph45%30.15 "HgN/A
1:30 PM79 °FPassing clouds.12 mph45%30.15 "HgN/A
1:00 PM79 °FPassing clouds.8 mph48%30.18 "HgN/A
12:30 PM77 °FPassing clouds.6 mph51%30.18 "HgN/A
12:00 PM77 °FPassing clouds.3 mph51%30.18 "HgN/A
11:30 AM75 °FSunny.5 mph54%30.18 "Hg10 mi
11:00 AM73 °FPassing clouds.3 mph53%30.18 "HgN/A
10:30 AM72 °FSunny.1 mph61%30.18 "Hg10 mi
10:00 AM70 °FSunny.2 mph64%30.15 "Hg10 mi
9:30 AM66 °FMild.3 mph68%30.15 "HgN/A
9:00 AM64 °FSunny.7 mph73%30.18 "Hg10 mi
8:30 AM64 °FSunny.6 mph73%30.15 "Hg10 mi
8:00 AM64 °FSunny.3 mph73%30.15 "Hg10 mi
7:30 AM63 °FClear.5 mph77%30.15 "Hg10 mi
7:00 AM63 °FClear.5 mph77%30.15 "Hg10 mi
6:30 AM63 °FClear.5 mph77%30.12 "Hg10 mi
6:00 AM63 °FClear.3 mph77%30.12 "Hg10 mi
5:30 AM63 °FClear.5 mph77%30.15 "Hg10 mi
5:00 AM63 °FClear.1 mph77%30.15 "Hg10 mi
4:30 AM64 °FClear.3 mph73%30.15 "Hg10 mi
4:00 AM64 °FClear.3 mph73%30.15 "Hg10 mi
Weather by CustomWeather, © 2016

See weather overviewHow to use our weather pages